Year,Month,Day,Hour,Minute,Value (Times are PST for temperature in C)
2016,12,18,00,00,0.40
2016,12,18,00,01,0.50
2016,12,18,00,02,0.60
2016,12,18,00,03,0.60
2016,12,18,00,04,0.70
2016,12,18,00,05,0.70
2016,12,18,00,06,0.80
2016,12,18,00,07,0.90
2016,12,18,00,08,0.90
2016,12,18,00,09,1.00
2016,12,18,00,10,1.00
2016,12,18,00,11,1.00
2016,12,18,00,12,1.10
2016,12,18,00,13,1.10
2016,12,18,00,14,1.10
2016,12,18,00,15,1.20
2016,12,18,00,16,1.20
2016,12,18,00,17,1.20
2016,12,18,00,18,1.20
2016,12,18,00,19,1.20
2016,12,18,00,20,1.20
2016,12,18,00,21,1.30
2016,12,18,00,22,1.30
2016,12,18,00,23,1.30
2016,12,18,00,24,1.30
2016,12,18,00,25,1.30
2016,12,18,00,26,1.30
2016,12,18,00,27,1.30
2016,12,18,00,28,1.30
2016,12,18,00,29,1.30
2016,12,18,00,30,1.30
2016,12,18,00,31,1.30
2016,12,18,00,32,1.30
2016,12,18,00,33,1.30
2016,12,18,00,34,1.30
2016,12,18,00,35,1.30
2016,12,18,00,36,1.30
2016,12,18,00,37,1.30
2016,12,18,00,38,1.30
2016,12,18,00,39,1.30
2016,12,18,00,40,1.30
2016,12,18,00,41,1.30
2016,12,18,00,42,1.30
2016,12,18,00,43,1.30
2016,12,18,00,44,1.40
2016,12,18,00,45,1.40
2016,12,18,00,46,1.40
2016,12,18,00,47,1.40
2016,12,18,00,48,1.40
2016,12,18,00,49,1.40
2016,12,18,00,50,1.40
2016,12,18,00,51,1.40
2016,12,18,00,52,1.40
2016,12,18,00,53,1.40
2016,12,18,00,54,1.40
2016,12,18,00,55,1.40
2016,12,18,00,56,1.40
2016,12,18,00,57,1.40
2016,12,18,00,58,1.40
2016,12,18,00,59,1.40
2016,12,18,01,00,1.40
2016,12,18,01,01,1.40
2016,12,18,01,02,1.40
2016,12,18,01,03,1.40
2016,12,18,01,04,1.40
2016,12,18,01,05,1.40
2016,12,18,01,06,1.40
2016,12,18,01,07,1.40
2016,12,18,01,08,1.40
2016,12,18,01,09,1.40
2016,12,18,01,10,1.40
2016,12,18,01,11,1.40
2016,12,18,01,12,1.40
2016,12,18,01,13,1.50
2016,12,18,01,14,1.50
2016,12,18,01,15,1.50
2016,12,18,01,16,1.50
2016,12,18,01,17,1.50
2016,12,18,01,18,1.60
2016,12,18,01,19,1.60
2016,12,18,01,20,1.60
2016,12,18,01,21,1.60
2016,12,18,01,22,1.60
2016,12,18,01,23,1.60
2016,12,18,01,24,1.60
2016,12,18,01,25,1.60
2016,12,18,01,26,1.60
2016,12,18,01,27,1.60
2016,12,18,01,28,1.60
2016,12,18,01,29,1.60
2016,12,18,01,30,1.60
2016,12,18,01,31,1.60
2016,12,18,01,32,1.60
2016,12,18,01,33,1.60
2016,12,18,01,34,1.60
2016,12,18,01,35,1.60
2016,12,18,01,36,1.70
2016,12,18,01,37,1.70
2016,12,18,01,38,1.70
2016,12,18,01,39,1.70
2016,12,18,01,40,1.70
2016,12,18,01,41,1.70
2016,12,18,01,42,1.70
2016,12,18,01,43,1.70
2016,12,18,01,44,1.70
2016,12,18,01,45,1.70
2016,12,18,01,46,1.70
2016,12,18,01,47,1.70
2016,12,18,01,48,1.70
2016,12,18,01,49,1.80
2016,12,18,01,50,1.80
2016,12,18,01,51,1.80
2016,12,18,01,52,1.80
2016,12,18,01,53,1.80
2016,12,18,01,54,1.80
2016,12,18,01,55,1.80
2016,12,18,01,56,1.80
2016,12,18,01,57,1.80
2016,12,18,01,58,1.80
2016,12,18,01,59,1.80
2016,12,18,02,00,1.80
2016,12,18,02,01,1.80
2016,12,18,02,02,1.80
2016,12,18,02,03,1.80
2016,12,18,02,04,1.90
2016,12,18,02,05,1.90
2016,12,18,02,06,1.90
2016,12,18,02,07,1.90
2016,12,18,02,08,1.90
2016,12,18,02,09,1.90
2016,12,18,02,10,1.90
2016,12,18,02,11,1.90
2016,12,18,02,12,1.90
2016,12,18,02,13,1.90
2016,12,18,02,14,1.90
2016,12,18,02,15,1.90
2016,12,18,02,16,1.90
2016,12,18,02,17,1.90
2016,12,18,02,18,1.90
2016,12,18,02,19,1.90
2016,12,18,02,20,1.90
2016,12,18,02,21,1.90
2016,12,18,02,22,1.90
2016,12,18,02,23,1.90
2016,12,18,02,24,1.90
2016,12,18,02,25,1.90
2016,12,18,02,26,1.90
2016,12,18,02,27,1.90
2016,12,18,02,28,1.90
2016,12,18,02,29,1.90
2016,12,18,02,30,1.90
2016,12,18,02,31,1.90
2016,12,18,02,32,1.90
2016,12,18,02,33,1.90
2016,12,18,02,34,2.00
2016,12,18,02,35,2.00
2016,12,18,02,36,2.00
2016,12,18,02,37,2.00
2016,12,18,02,38,2.00
2016,12,18,02,39,2.00
2016,12,18,02,40,2.00
2016,12,18,02,41,2.00
2016,12,18,02,42,2.00
2016,12,18,02,43,2.00
2016,12,18,02,44,2.00
2016,12,18,02,45,2.00
2016,12,18,02,46,2.00
2016,12,18,02,47,2.10
2016,12,18,02,48,2.10
2016,12,18,02,49,2.10
2016,12,18,02,50,2.10
2016,12,18,02,51,2.00
2016,12,18,02,52,2.00
2016,12,18,02,53,2.00
2016,12,18,02,54,2.00
2016,12,18,02,55,2.00
2016,12,18,02,56,2.00
2016,12,18,02,57,2.10
2016,12,18,02,58,2.10
2016,12,18,02,59,2.10
2016,12,18,03,00,2.10
2016,12,18,03,01,2.10
2016,12,18,03,02,2.10
2016,12,18,03,03,2.10
2016,12,18,03,04,2.00
2016,12,18,03,05,2.00
2016,12,18,03,06,2.00
2016,12,18,03,07,2.00
2016,12,18,03,08,2.00
2016,12,18,03,09,2.00
2016,12,18,03,10,2.00
2016,12,18,03,11,2.00
2016,12,18,03,12,2.00
2016,12,18,03,13,2.00
2016,12,18,03,14,2.00
2016,12,18,03,15,2.00
2016,12,18,03,16,2.00
2016,12,18,03,17,2.00
2016,12,18,03,18,2.00
2016,12,18,03,19,2.00
2016,12,18,03,20,2.00
2016,12,18,03,21,2.00
2016,12,18,03,22,2.00
2016,12,18,03,23,2.00
2016,12,18,03,24,2.00
2016,12,18,03,25,2.00
2016,12,18,03,26,2.00
2016,12,18,03,27,2.00
2016,12,18,03,28,2.00
2016,12,18,03,29,2.00
2016,12,18,03,30,2.00
2016,12,18,03,31,2.00
2016,12,18,03,32,2.00
2016,12,18,03,33,2.00
2016,12,18,03,34,2.00
2016,12,18,03,35,2.00
2016,12,18,03,36,2.00
2016,12,18,03,37,2.00
2016,12,18,03,38,2.00
2016,12,18,03,39,2.00
2016,12,18,03,40,2.00
2016,12,18,03,41,2.00
2016,12,18,03,42,2.00
2016,12,18,03,43,2.00
2016,12,18,03,44,2.00
2016,12,18,03,45,2.00
2016,12,18,03,46,2.00
2016,12,18,03,47,2.00
2016,12,18,03,48,2.00
2016,12,18,03,49,2.00
2016,12,18,03,50,2.00
2016,12,18,03,51,2.00
2016,12,18,03,52,2.00
2016,12,18,03,53,2.00
2016,12,18,03,54,2.00
2016,12,18,03,55,2.00
2016,12,18,03,56,2.00
2016,12,18,03,57,2.00
2016,12,18,03,58,2.00
2016,12,18,03,59,2.00
2016,12,18,04,00,2.00
2016,12,18,04,01,2.00
2016,12,18,04,02,2.00
2016,12,18,04,03,2.00
2016,12,18,04,04,2.00
2016,12,18,04,05,1.90
2016,12,18,04,06,1.90
2016,12,18,04,07,1.90
2016,12,18,04,08,1.90
2016,12,18,04,09,1.90
2016,12,18,04,10,1.90
2016,12,18,04,11,1.90
2016,12,18,04,12,1.90
2016,12,18,04,13,1.90
2016,12,18,04,14,1.90
2016,12,18,04,15,1.90
2016,12,18,04,16,1.90
2016,12,18,04,17,1.90
2016,12,18,04,18,1.90
2016,12,18,04,19,1.90
2016,12,18,04,20,1.90
2016,12,18,04,21,1.80
2016,12,18,04,22,1.80
2016,12,18,04,23,1.80
2016,12,18,04,24,1.80
2016,12,18,04,25,1.80
2016,12,18,04,26,1.80
2016,12,18,04,27,1.80
2016,12,18,04,28,1.80
2016,12,18,04,29,1.70
2016,12,18,04,30,1.70
2016,12,18,04,31,1.70
2016,12,18,04,32,1.70
2016,12,18,04,33,1.70
2016,12,18,04,34,1.70
2016,12,18,04,35,1.70
2016,12,18,04,36,1.70
2016,12,18,04,37,1.60
2016,12,18,04,38,1.60
2016,12,18,04,39,1.60
2016,12,18,04,40,1.60
2016,12,18,04,41,1.60
2016,12,18,04,42,1.60
2016,12,18,04,43,1.50
2016,12,18,04,44,1.50
2016,12,18,04,45,1.50
2016,12,18,04,46,1.50
2016,12,18,04,47,1.40
2016,12,18,04,48,1.40
2016,12,18,04,49,1.40
2016,12,18,04,50,1.40
2016,12,18,04,51,1.40
2016,12,18,04,52,1.40
2016,12,18,04,53,1.30
2016,12,18,04,54,1.30
2016,12,18,04,55,1.30
2016,12,18,04,56,1.30
2016,12,18,04,57,1.30
2016,12,18,04,58,1.30
2016,12,18,04,59,1.30
2016,12,18,05,00,1.30
2016,12,18,05,01,1.30
2016,12,18,05,02,1.20
2016,12,18,05,03,1.20
2016,12,18,05,04,1.20
2016,12,18,05,05,1.20
2016,12,18,05,06,1.20
2016,12,18,05,07,1.20
2016,12,18,05,08,1.20
2016,12,18,05,09,1.20
2016,12,18,05,10,1.20
2016,12,18,05,11,1.10
2016,12,18,05,12,1.10
2016,12,18,05,13,1.10
2016,12,18,05,14,1.10
2016,12,18,05,15,1.10
2016,12,18,05,16,1.10
2016,12,18,05,17,1.10
2016,12,18,05,18,1.10
2016,12,18,05,19,1.10
2016,12,18,05,20,1.00
2016,12,18,05,21,1.00
2016,12,18,05,22,1.00
2016,12,18,05,23,1.00
2016,12,18,05,24,1.00
2016,12,18,05,25,1.00
2016,12,18,05,26,1.00
2016,12,18,05,27,1.00
2016,12,18,05,28,1.00
2016,12,18,05,29,1.00
2016,12,18,05,30,1.00
2016,12,18,05,31,1.00
2016,12,18,05,32,0.90
2016,12,18,05,33,0.90
2016,12,18,05,34,0.90
2016,12,18,05,35,0.90
2016,12,18,05,36,0.90
2016,12,18,05,37,0.90
2016,12,18,05,38,0.90
2016,12,18,05,39,0.90
2016,12,18,05,40,0.90
2016,12,18,05,41,0.90
2016,12,18,05,42,0.90
2016,12,18,09,22,1.80
2016,12,18,09,23,1.80
2016,12,18,09,24,1.80
2016,12,18,09,25,1.90
2016,12,18,09,26,1.90
2016,12,18,09,27,1.90
2016,12,18,09,28,1.90
2016,12,18,09,29,1.90
2016,12,18,09,30,1.90
2016,12,18,09,31,1.90
2016,12,18,09,32,1.90
2016,12,18,09,33,1.90
2016,12,18,09,34,1.90
2016,12,18,09,35,1.90
2016,12,18,09,36,1.90
2016,12,18,09,37,1.90
2016,12,18,09,38,2.00
2016,12,18,09,39,2.00
2016,12,18,09,40,2.00
2016,12,18,09,41,2.00
2016,12,18,09,42,2.00
2016,12,18,09,43,2.10
2016,12,18,09,44,2.10
2016,12,18,09,45,2.10
2016,12,18,09,46,2.10
2016,12,18,09,47,2.10
2016,12,18,09,48,2.10
2016,12,18,09,49,2.10
2016,12,18,09,50,2.10
2016,12,18,09,51,2.10
2016,12,18,09,52,2.10
2016,12,18,09,53,2.10
2016,12,18,09,54,2.10
2016,12,18,09,55,2.10
2016,12,18,09,56,2.10
2016,12,18,09,57,2.10
2016,12,18,09,58,2.20
2016,12,18,09,59,2.20
2016,12,18,10,00,2.20
2016,12,18,10,01,2.20
2016,12,18,10,02,2.20
2016,12,18,10,03,2.20
2016,12,18,10,04,2.20
2016,12,18,10,05,2.20
2016,12,18,10,06,2.20
2016,12,18,10,07,2.20
2016,12,18,10,08,2.20
2016,12,18,10,09,2.20
2016,12,18,10,10,2.20
2016,12,18,10,11,2.20
2016,12,18,10,12,2.20
2016,12,18,10,13,2.20
2016,12,18,10,14,2.20
2016,12,18,10,15,2.30
2016,12,18,10,16,2.30
2016,12,18,10,17,2.30
2016,12,18,10,18,2.30
2016,12,18,10,19,2.30
2016,12,18,10,20,2.30
2016,12,18,10,21,2.30
2016,12,18,10,22,2.30
2016,12,18,10,23,2.30
2016,12,18,10,24,2.30
2016,12,18,10,25,2.30
2016,12,18,10,26,2.30
2016,12,18,10,27,2.30
2016,12,18,10,28,2.30
2016,12,18,10,29,2.30
2016,12,18,10,30,2.30
2016,12,18,10,31,2.30
2016,12,18,10,32,2.40
2016,12,18,10,33,2.40
2016,12,18,10,34,2.40
2016,12,18,10,35,2.40
2016,12,18,10,36,2.40
2016,12,18,10,37,2.40
2016,12,18,10,38,2.40
2016,12,18,10,39,2.40
2016,12,18,10,40,2.40
2016,12,18,10,41,2.40
2016,12,18,10,42,2.40
2016,12,18,10,43,2.40
2016,12,18,10,44,2.40
2016,12,18,10,45,2.50
2016,12,18,10,46,2.50
2016,12,18,10,47,2.50
2016,12,18,10,48,2.50
2016,12,18,10,49,2.50
2016,12,18,10,50,2.50
2016,12,18,10,51,2.50
2016,12,18,10,52,2.60
2016,12,18,10,53,2.60
2016,12,18,10,54,2.60
2016,12,18,10,55,2.60
2016,12,18,10,56,2.60
2016,12,18,10,57,2.60
2016,12,18,10,58,2.60
2016,12,18,10,59,2.60
2016,12,18,11,00,2.60
2016,12,18,11,01,2.60
2016,12,18,11,02,2.60
2016,12,18,11,03,2.60
2016,12,18,11,04,2.70
2016,12,18,11,05,2.70
2016,12,18,11,06,2.70
2016,12,18,11,07,2.70
2016,12,18,11,08,2.70
2016,12,18,11,09,2.70
2016,12,18,11,10,2.80
2016,12,18,11,11,2.80
2016,12,18,11,12,2.80
2016,12,18,11,13,2.80
2016,12,18,11,14,2.80
2016,12,18,11,15,2.80
2016,12,18,11,16,2.80
2016,12,18,11,17,2.80
2016,12,18,11,18,2.80
2016,12,18,11,19,2.80
2016,12,18,11,20,2.80
2016,12,18,11,21,2.80
2016,12,18,11,22,2.80
2016,12,18,11,23,2.80
2016,12,18,11,24,2.80
2016,12,18,11,25,2.70
2016,12,18,11,26,2.70
2016,12,18,11,27,2.70
2016,12,18,11,28,2.70
2016,12,18,11,29,2.70
2016,12,18,11,30,2.70
2016,12,18,11,31,2.70
2016,12,18,11,32,2.70
2016,12,18,11,33,2.60
2016,12,18,11,34,2.60
2016,12,18,11,35,2.60
2016,12,18,11,36,2.60
2016,12,18,11,37,2.60
2016,12,18,11,38,2.60
2016,12,18,11,39,2.50
2016,12,18,11,40,2.50
2016,12,18,11,41,2.50
2016,12,18,11,42,2.50
2016,12,18,11,43,2.50
2016,12,18,11,44,2.40
2016,12,18,11,45,2.40
2016,12,18,11,46,2.40
2016,12,18,11,47,2.40
2016,12,18,11,48,2.40
2016,12,18,11,49,2.40
2016,12,18,11,50,2.40
2016,12,18,11,51,2.40
2016,12,18,11,52,2.40
2016,12,18,11,53,2.40
2016,12,18,11,54,2.40
2016,12,18,11,55,2.40
2016,12,18,11,56,2.40
2016,12,18,11,57,2.40
2016,12,18,11,58,2.40
2016,12,18,11,59,2.40
2016,12,18,12,00,2.40
2016,12,18,12,01,2.40
2016,12,18,12,02,2.40
2016,12,18,12,03,2.40
2016,12,18,12,04,2.40
2016,12,18,12,05,2.40
2016,12,18,12,06,2.40
2016,12,18,12,07,2.40
2016,12,18,12,08,2.40
2016,12,18,12,09,2.40
2016,12,18,12,10,2.40
2016,12,18,12,11,2.40
2016,12,18,12,12,2.40
2016,12,18,12,13,2.40
2016,12,18,12,14,2.50
2016,12,18,12,15,2.50
2016,12,18,12,16,2.50
2016,12,18,12,17,2.50
2016,12,18,12,18,2.50
2016,12,18,12,19,2.50
2016,12,18,12,20,2.50
2016,12,18,12,21,2.50
2016,12,18,12,22,2.50
2016,12,18,12,23,2.50
2016,12,18,12,24,2.60
2016,12,18,12,25,2.60
2016,12,18,12,26,2.60
2016,12,18,12,27,2.60
2016,12,18,12,28,2.60
2016,12,18,12,29,2.60
2016,12,18,12,30,2.60
2016,12,18,12,31,2.60
2016,12,18,12,32,2.60
2016,12,18,12,33,2.60
2016,12,18,12,34,2.60
2016,12,18,12,35,2.60
2016,12,18,12,36,2.70
2016,12,18,12,37,2.70
2016,12,18,12,38,2.70
2016,12,18,12,39,2.70
2016,12,18,12,40,2.70
2016,12,18,12,41,2.70
2016,12,18,12,42,2.70
2016,12,18,12,43,2.70
2016,12,18,12,44,2.70
2016,12,18,12,45,2.70
2016,12,18,12,46,2.70
2016,12,18,12,47,2.70
2016,12,18,12,48,2.70
2016,12,18,12,49,2.70
2016,12,18,12,50,2.80
2016,12,18,12,51,2.70
2016,12,18,12,52,2.80
2016,12,18,12,53,2.80
2016,12,18,12,54,2.70
2016,12,18,12,55,2.70
2016,12,18,12,56,2.70
2016,12,18,12,57,2.70
2016,12,18,12,58,2.70
2016,12,18,12,59,2.70
2016,12,18,13,00,2.70
2016,12,18,13,01,2.70
2016,12,18,13,02,2.70
2016,12,18,13,03,2.70
2016,12,18,13,04,2.70
2016,12,18,13,05,2.70
2016,12,18,13,06,2.70
2016,12,18,13,07,2.70
2016,12,18,13,08,2.70
2016,12,18,13,09,2.70
2016,12,18,13,10,2.70
2016,12,18,13,11,2.70
2016,12,18,13,12,2.70
2016,12,18,13,13,2.70
2016,12,18,13,14,2.70
2016,12,18,13,15,2.70
2016,12,18,13,16,2.70
2016,12,18,13,17,2.70
2016,12,18,13,18,2.70
2016,12,18,13,19,2.70
2016,12,18,13,20,2.70
2016,12,18,13,21,2.70
2016,12,18,13,22,2.70
2016,12,18,13,23,2.70
2016,12,18,13,24,2.70
2016,12,18,13,25,2.80
2016,12,18,13,26,2.80
2016,12,18,13,27,2.80
2016,12,18,13,28,2.80
2016,12,18,13,29,2.80
2016,12,18,13,30,2.80
2016,12,18,13,31,2.80
2016,12,18,13,32,2.80
2016,12,18,13,33,2.80
2016,12,18,13,34,2.80
2016,12,18,13,35,2.80
2016,12,18,13,36,2.90
2016,12,18,13,37,2.90
2016,12,18,13,38,2.90
2016,12,18,13,39,2.90
2016,12,18,13,40,2.90
2016,12,18,13,41,2.90
2016,12,18,13,42,2.90
2016,12,18,13,43,2.90
2016,12,18,13,44,2.90
2016,12,18,13,45,2.90
2016,12,18,13,46,2.90
2016,12,18,13,47,2.90
2016,12,18,13,48,2.90
2016,12,18,13,49,2.90
2016,12,18,13,50,2.90
2016,12,18,13,51,2.90
2016,12,18,13,52,2.90
2016,12,18,13,53,2.90
2016,12,18,13,54,2.90
2016,12,18,13,55,2.90
2016,12,18,13,56,2.90
2016,12,18,13,57,2.90
2016,12,18,13,58,2.90
2016,12,18,13,59,2.90
2016,12,18,14,00,2.90
2016,12,18,14,01,2.90
2016,12,18,14,02,2.90
2016,12,18,14,03,2.90
2016,12,18,14,04,2.90
2016,12,18,14,05,2.90
2016,12,18,14,06,2.90
2016,12,18,14,07,2.90
2016,12,18,14,08,2.90
2016,12,18,14,09,2.90
2016,12,18,14,10,2.90
2016,12,18,14,11,2.90
2016,12,18,14,12,2.90
2016,12,18,14,13,2.90
2016,12,18,14,14,2.90
2016,12,18,14,15,2.90
2016,12,18,14,16,2.90
2016,12,18,14,17,2.90
2016,12,18,14,18,2.90
2016,12,18,14,19,2.90
2016,12,18,14,20,2.90
2016,12,18,14,21,2.90
2016,12,18,14,22,2.90
2016,12,18,14,23,2.90
2016,12,18,14,24,2.90
2016,12,18,14,25,2.90
2016,12,18,14,26,2.90
2016,12,18,14,27,2.90
2016,12,18,14,28,2.90
2016,12,18,14,29,2.90
2016,12,18,14,30,2.90
2016,12,18,14,31,2.90
2016,12,18,14,32,2.90
2016,12,18,14,33,2.90
2016,12,18,14,34,2.90
2016,12,18,14,35,2.90
2016,12,18,14,36,2.90
2016,12,18,14,37,2.90
2016,12,18,14,38,2.90
2016,12,18,14,39,2.90
2016,12,18,14,40,2.90
2016,12,18,14,41,2.90
2016,12,18,14,42,2.90
2016,12,18,14,43,2.90
2016,12,18,14,44,2.90
2016,12,18,14,45,2.90
2016,12,18,14,46,2.90
2016,12,18,14,47,2.90
2016,12,18,14,48,2.90
2016,12,18,14,49,2.90
2016,12,18,14,50,2.90
2016,12,18,14,51,2.90
2016,12,18,14,52,2.90
2016,12,18,14,53,2.90
2016,12,18,14,54,2.90
2016,12,18,14,55,2.90
2016,12,18,14,56,2.90
2016,12,18,14,57,2.90
2016,12,18,14,58,2.90
2016,12,18,14,59,2.90
2016,12,18,15,00,2.90
2016,12,18,15,01,2.90
2016,12,18,15,02,2.90
2016,12,18,15,03,2.90
2016,12,18,15,04,2.90
2016,12,18,15,05,2.90
2016,12,18,15,06,2.90
2016,12,18,15,07,2.90
2016,12,18,15,08,2.90
2016,12,18,15,09,2.90
2016,12,18,15,10,2.90
2016,12,18,15,11,3.00
2016,12,18,15,12,3.00
2016,12,18,15,13,3.00
2016,12,18,15,14,3.00
2016,12,18,15,15,3.00
2016,12,18,15,16,3.00
2016,12,18,15,17,3.00
2016,12,18,15,18,3.00
2016,12,18,15,19,3.00
2016,12,18,15,20,3.00
2016,12,18,15,21,3.00
2016,12,18,15,22,3.00
2016,12,18,15,23,3.10
2016,12,18,15,24,3.10
2016,12,18,15,25,3.10
2016,12,18,15,26,3.10
2016,12,18,15,27,3.10
2016,12,18,15,28,3.10
2016,12,18,15,29,3.10
2016,12,18,15,30,3.10
2016,12,18,15,31,3.10
2016,12,18,15,32,3.10
2016,12,18,15,33,3.20
2016,12,18,15,34,3.10
2016,12,18,15,35,3.10
2016,12,18,15,36,3.20
2016,12,18,15,37,3.10
2016,12,18,15,38,3.10
2016,12,18,15,39,3.10
2016,12,18,15,40,3.10
2016,12,18,15,41,3.10
2016,12,18,15,42,3.10
2016,12,18,15,43,3.10
2016,12,18,15,44,3.10
2016,12,18,15,45,3.10
2016,12,18,15,46,3.10
2016,12,18,15,47,3.10
2016,12,18,15,48,3.10
2016,12,18,15,49,3.10
2016,12,18,15,50,3.10
2016,12,18,15,51,3.10
2016,12,18,15,52,3.10
2016,12,18,15,53,3.20
2016,12,18,15,54,3.20
2016,12,18,15,55,3.20
2016,12,18,15,56,3.20
2016,12,18,15,57,3.20
2016,12,18,15,58,3.20
2016,12,18,15,59,3.20
2016,12,18,16,00,3.20
2016,12,18,16,01,3.20
2016,12,18,16,02,3.20
2016,12,18,16,03,3.30
2016,12,18,16,04,3.30
2016,12,18,16,05,3.30
2016,12,18,16,06,3.30
2016,12,18,16,07,3.30
2016,12,18,16,08,3.30
2016,12,18,16,09,3.30
2016,12,18,16,10,3.30
2016,12,18,16,11,3.30
2016,12,18,16,12,3.30
2016,12,18,16,13,3.30
2016,12,18,16,14,3.30
2016,12,18,16,15,3.30
2016,12,18,16,16,3.30
2016,12,18,16,17,3.30
2016,12,18,16,18,3.30
2016,12,18,16,19,3.30
2016,12,18,16,20,3.30
2016,12,18,16,21,3.30
2016,12,18,16,22,3.30
2016,12,18,16,23,3.30
2016,12,18,16,24,3.30
2016,12,18,16,25,3.30
2016,12,18,16,26,3.30
2016,12,18,16,27,3.30
2016,12,18,16,28,3.30
2016,12,18,16,29,3.30
2016,12,18,16,30,3.30
2016,12,18,16,31,3.30
2016,12,18,16,32,3.30
2016,12,18,16,33,3.30
2016,12,18,16,34,3.30
2016,12,18,16,35,3.30
2016,12,18,16,36,3.30
2016,12,18,16,37,3.30
2016,12,18,16,38,3.30
2016,12,18,16,39,3.30
2016,12,18,16,40,3.30
2016,12,18,16,41,3.30
2016,12,18,16,42,3.30
2016,12,18,16,43,3.30
2016,12,18,16,44,3.30
2016,12,18,16,45,3.30
2016,12,18,16,46,3.30
2016,12,18,16,47,3.30
2016,12,18,16,48,3.30
2016,12,18,16,49,3.30
2016,12,18,16,50,3.30
2016,12,18,16,51,3.30
2016,12,18,16,52,3.30
2016,12,18,16,53,3.30
2016,12,18,16,54,3.30
2016,12,18,16,55,3.30
2016,12,18,16,56,3.20
2016,12,18,16,57,3.30
2016,12,18,16,58,3.20
2016,12,18,16,59,3.20
2016,12,18,17,00,3.30
2016,12,18,17,01,3.20
2016,12,18,17,02,3.20
2016,12,18,17,03,3.30
2016,12,18,17,04,3.30
2016,12,18,17,05,3.30
2016,12,18,17,06,3.30
2016,12,18,17,07,3.30
2016,12,18,17,08,3.30
2016,12,18,17,09,3.30
2016,12,18,17,10,3.30
2016,12,18,17,11,3.30
2016,12,18,17,12,3.30
2016,12,18,17,13,3.30
2016,12,18,17,14,3.30
2016,12,18,17,15,3.30
2016,12,18,17,16,3.30
2016,12,18,17,17,3.30
2016,12,18,17,18,3.30
2016,12,18,17,19,3.30
2016,12,18,17,20,3.30
2016,12,18,17,21,3.30
2016,12,18,17,22,3.30
2016,12,18,17,23,3.30
2016,12,18,17,24,3.30
2016,12,18,17,25,3.30
2016,12,18,17,26,3.30
2016,12,18,17,27,3.30
2016,12,18,17,28,3.30
2016,12,18,17,29,3.40
2016,12,18,17,30,3.40
2016,12,18,17,31,3.40
2016,12,18,17,32,3.40
2016,12,18,17,33,3.40
2016,12,18,17,34,3.40
2016,12,18,17,35,3.40
2016,12,18,17,36,3.40
2016,12,18,17,37,3.40
2016,12,18,17,38,3.40
2016,12,18,17,39,3.40
2016,12,18,17,40,3.40
2016,12,18,17,41,3.40
2016,12,18,17,42,3.40
2016,12,18,17,43,3.40
2016,12,18,17,44,3.40
2016,12,18,17,45,3.40
2016,12,18,17,46,3.40
2016,12,18,17,47,3.40
2016,12,18,17,48,3.40
2016,12,18,17,49,3.40
2016,12,18,17,50,3.40
2016,12,18,17,51,3.40
2016,12,18,17,52,3.40
2016,12,18,17,53,3.40
2016,12,18,17,54,3.40
2016,12,18,17,55,3.40
2016,12,18,17,56,3.40
2016,12,18,17,57,3.40
2016,12,18,17,58,3.40
2016,12,18,17,59,3.40
2016,12,18,18,00,3.40
2016,12,18,18,01,3.40
2016,12,18,18,02,3.50
2016,12,18,18,03,3.50
2016,12,18,18,04,3.50
2016,12,18,18,05,3.50
2016,12,18,18,06,3.50
2016,12,18,18,07,3.50
2016,12,18,18,08,3.50
2016,12,18,18,09,3.50
2016,12,18,18,10,3.50
2016,12,18,18,11,3.50
2016,12,18,18,12,3.50
2016,12,18,18,13,3.50
2016,12,18,18,14,3.50
2016,12,18,18,15,3.50
2016,12,18,18,16,3.50
2016,12,18,18,17,3.50
2016,12,18,18,18,3.50
2016,12,18,18,19,3.50
2016,12,18,18,20,3.50
2016,12,18,18,21,3.50
2016,12,18,18,22,3.50
2016,12,18,18,23,3.50
2016,12,18,18,24,3.50
2016,12,18,18,25,3.50
2016,12,18,18,26,3.50
2016,12,18,18,27,3.50
2016,12,18,18,28,3.50
2016,12,18,18,29,3.50
2016,12,18,18,30,3.50
2016,12,18,18,31,3.50
2016,12,18,18,32,3.50
2016,12,18,18,33,3.50
2016,12,18,18,34,3.50
2016,12,18,18,35,3.50
2016,12,18,18,36,3.50
2016,12,18,18,37,3.50
2016,12,18,18,38,3.50
2016,12,18,18,39,3.50
2016,12,18,18,40,3.50
2016,12,18,18,41,3.50
2016,12,18,18,42,3.50
2016,12,18,18,43,3.50
2016,12,18,18,44,3.50
2016,12,18,18,45,3.50
2016,12,18,18,46,3.50
2016,12,18,18,47,3.50
2016,12,18,18,48,3.50
2016,12,18,18,49,3.50
2016,12,18,18,50,3.50
2016,12,18,18,51,3.50
2016,12,18,18,52,3.50
2016,12,18,18,53,3.50
2016,12,18,18,54,3.50
2016,12,18,18,55,3.50
2016,12,18,18,56,3.50
2016,12,18,18,57,3.50
2016,12,18,18,58,3.50
2016,12,18,18,59,3.50
2016,12,18,19,00,3.50
2016,12,18,19,01,3.50
2016,12,18,19,02,3.50
2016,12,18,19,03,3.50
2016,12,18,19,04,3.50
2016,12,18,19,05,3.40
2016,12,18,19,06,3.40
2016,12,18,19,07,3.40
2016,12,18,19,08,3.40
2016,12,18,19,09,3.40
2016,12,18,19,10,3.40
2016,12,18,19,11,3.40
2016,12,18,19,12,3.40
2016,12,18,19,13,3.40
2016,12,18,19,14,3.40
2016,12,18,19,15,3.40
2016,12,18,19,16,3.40
2016,12,18,19,17,3.40
2016,12,18,19,18,3.40
2016,12,18,19,19,3.40
2016,12,18,19,20,3.40
2016,12,18,19,21,3.40
2016,12,18,19,22,3.40
2016,12,18,19,23,3.40
2016,12,18,19,24,3.40
2016,12,18,19,25,3.40
2016,12,18,19,26,3.40
2016,12,18,19,27,3.40
2016,12,18,19,28,3.30
2016,12,18,19,29,3.30
2016,12,18,19,30,3.30
2016,12,18,19,31,3.30
2016,12,18,19,32,3.30
2016,12,18,19,33,3.30
2016,12,18,19,34,3.30
2016,12,18,19,35,3.30
2016,12,18,19,36,3.30
2016,12,18,19,37,3.30
2016,12,18,19,38,3.30
2016,12,18,19,39,3.30
2016,12,18,19,40,3.30
2016,12,18,19,41,3.30
2016,12,18,19,42,3.30
2016,12,18,19,43,3.30
2016,12,18,19,44,3.30
2016,12,18,19,45,3.30
2016,12,18,19,46,3.40
2016,12,18,19,47,3.40
2016,12,18,19,48,3.40
2016,12,18,19,49,3.40
2016,12,18,19,50,3.40
2016,12,18,19,51,3.40
2016,12,18,19,52,3.40
2016,12,18,19,53,3.40
2016,12,18,19,54,3.40
2016,12,18,19,55,3.40
2016,12,18,19,56,3.40
2016,12,18,19,57,3.40
2016,12,18,19,58,3.40
2016,12,18,19,59,3.40
2016,12,18,20,00,3.40
2016,12,18,20,01,3.40
2016,12,18,20,02,3.40
2016,12,18,20,03,3.40
2016,12,18,20,04,3.40
2016,12,18,20,05,3.40
2016,12,18,20,06,3.40
2016,12,18,20,07,3.40
2016,12,18,20,08,3.40
2016,12,18,20,09,3.40
2016,12,18,20,10,3.30
2016,12,18,20,11,3.30
2016,12,18,20,12,3.30
2016,12,18,20,13,3.30
2016,12,18,20,14,3.30
2016,12,18,20,15,3.40
2016,12,18,20,16,3.40
2016,12,18,20,17,3.40
2016,12,18,20,18,3.40
2016,12,18,20,19,3.40
2016,12,18,20,20,3.40
2016,12,18,20,21,3.40
2016,12,18,20,22,3.40
2016,12,18,20,23,3.40
2016,12,18,20,24,3.40
2016,12,18,20,25,3.40
2016,12,18,20,26,3.30
2016,12,18,20,27,3.30
2016,12,18,20,28,3.30
2016,12,18,20,29,3.30
2016,12,18,20,30,3.30
2016,12,18,20,31,3.30
2016,12,18,20,32,3.30
2016,12,18,20,33,3.30
2016,12,18,20,34,3.30
2016,12,18,20,35,3.30
2016,12,18,20,36,3.30
2016,12,18,20,37,3.30
2016,12,18,20,38,3.30
2016,12,18,20,39,3.30
2016,12,18,20,40,3.30
2016,12,18,20,41,3.30
2016,12,18,20,42,3.30
2016,12,18,20,43,3.30
2016,12,18,20,44,3.20
2016,12,18,20,45,3.20
2016,12,18,20,46,3.20
2016,12,18,20,47,3.20
2016,12,18,20,48,3.20
2016,12,18,20,49,3.20
2016,12,18,20,50,3.20
2016,12,18,20,51,3.20
2016,12,18,20,52,3.20
2016,12,18,20,53,3.20
2016,12,18,20,54,3.20
2016,12,18,20,55,3.20
2016,12,18,20,56,3.10
2016,12,18,20,57,3.10
2016,12,18,20,58,3.10
2016,12,18,20,59,3.10
2016,12,18,21,00,3.00
2016,12,18,21,01,3.00
2016,12,18,21,02,3.00
2016,12,18,21,03,3.00
2016,12,18,21,04,2.90
2016,12,18,21,05,2.90
2016,12,18,21,06,2.90
2016,12,18,21,07,2.80
2016,12,18,21,08,2.80
2016,12,18,21,09,2.80
2016,12,18,21,10,2.80
2016,12,18,21,11,2.70
2016,12,18,21,12,2.70
2016,12,18,21,13,2.70
2016,12,18,21,14,2.70
2016,12,18,21,15,2.70
2016,12,18,21,16,2.70
2016,12,18,21,17,2.70
2016,12,18,21,18,2.60
2016,12,18,21,19,2.60
2016,12,18,21,20,2.60
2016,12,18,21,21,2.60
2016,12,18,21,22,2.50
2016,12,18,21,23,2.50
2016,12,18,21,24,2.50
2016,12,18,21,25,2.40
2016,12,18,21,26,2.40
2016,12,18,21,27,2.40
2016,12,18,21,28,2.40
2016,12,18,21,29,2.40
2016,12,18,21,30,2.30
2016,12,18,21,31,2.30
2016,12,18,21,32,2.30
2016,12,18,21,33,2.30
2016,12,18,21,34,2.30
2016,12,18,21,35,2.30
2016,12,18,21,36,2.30
2016,12,18,21,37,2.30
2016,12,18,21,38,2.30
2016,12,18,21,39,2.30
2016,12,18,21,40,2.30
2016,12,18,21,41,2.30
2016,12,18,21,42,2.30
2016,12,18,21,43,2.30
2016,12,18,21,44,2.30
2016,12,18,21,45,2.20